ORBCOMM FM104 [-]

Last updated on July 6, 2021, 3:36 p.m. UTC

1 40090U 14040E   21186.80235941 -.00000060  00000-0  25351-4 0  9999
2 40090  47.0075 343.5614 0017533 114.6014 245.6699 14.53499063370634
UTC
Height (km)
Latitude
Longitude
Inclination
Orbital Period
UTC large
Height (km)
Speed (km/s)
/
Latitude / Longitude
Inclination (degrees)
Orbital Period (minutes)
Azimuth
Elevation
Range (km)
Doppler Factor
iOS Compass Heading
iOS Angle